Miscellaneous Local Product
Issued by NWS Hastings, NE

Home | Current Version | Previous Version | Graphics & Text | Print | Product List | Glossary On
Versions: 1 2 3 4 5 6 7 8 9 10 11 12 13 14 15 16 17 18 19 20 21 22 23 24 25 26 27 28 29 30 31 32 33 34 35 36 37 38 39 40 41 42 43 44 45 46 47 48 49 50
693
AXUS43 KGID 201902
MISGRI

GID CWA HOURLY WEATHER ROUNDUP
NATIONAL WEATHER SERVICE HASTINGS NE
100 PM CST MON FEB 20 2017

NOTE: "FAIR" INDICATES FEW OR NO CLOUDS BELOW 12,000 FEET WITH NO
SIGNIFICANT WEATHER AND/OR OBSTRUCTIONS TO VISIBILITY.

...SOUTH CENTRAL NEBRASKA...

CITY           SKY/WX    TMP DP  RH WIND       PRES   REMARKS
GRAND ISLAND   MOSUNNY   63  42  46 N21G31    29.78R
HASTINGS       SUNNY     64  40  41 NW22      29.79R
KEARNEY        MOSUNNY   61  39  44 N26G32    29.82R
ORD            CLOUDY    54  40  59 NW20      29.79R
YORK           CLOUDY    59  46  63 W10       29.76R
AURORA         PTSUNNY   62  43  50 NW22      29.77R
LEXINGTON      MOSUNNY   58  37  46 NW21G32   29.85S
HOLDREGE       MOSUNNY   59  37  43 N21G33    29.82S
HEBRON         CLOUDY    60  50  70 W8G18     29.77S

...NEBRASKA PANHANDLE...

CITY           SKY/WX    TMP DP  RH WIND       PRES   REMARKS
CHADRON        SUNNY     56  27  32 W16       29.89S
ALLIANCE       SUNNY     57  20  23 NW16G25   29.90S
SCOTTSBLUFF    SUNNY     58  15  18 W14G23    29.94F
SIDNEY         SUNNY     57  15  19 NW23G33   29.94F

...WESTERN AND NORTH CENTRAL NEBRASKA...

CITY           SKY/WX    TMP DP  RH WIND       PRES   REMARKS
VALENTINE      SUNNY     59  32  36 NW21G32   29.82S
AINSWORTH      MOSUNNY   56  37  49 N24       29.82F
ONEILL         CLOUDY    54  43  67 NW17      29.78R
BROKEN BOW     CLOUDY    54  40  59 N26G32    29.84R
IMPERIAL       SUNNY     59  26  28 N26G33    29.91S
NORTH PLATTE   MOSUNNY   60  34  37 NW22G31   29.88S
MCCOOK         SUNNY     62  35  36 N21G33    29.87R

...EASTERN NEBRASKA...

CITY           SKY/WX    TMP DP  RH WIND       PRES   REMARKS
NORFOLK        CLOUDY    54  40  59 NW22      29.74R
SO SIOUX CITY  CLOUDY    61  57  87 SW14      29.71S
TEKAMAH        CLOUDY    61  56  83 S16       29.73R
COLUMBUS       CLOUDY    59  48  67 W10G17    29.76R
ALBION         MOSUNNY   59  41  52 NW20      29.76S
OMAHA EPPLEY   LGT RAIN  61  56  83 S7        29.75R
OFFUTT AFB     CLOUDY    67  67 100 S12       29.75S
MILLARD        CLOUDY    62  58  86 S5        29.75S
LINCOLN        CLOUDY    62  55  77 S15       29.75F
NEBRASKA CITY  CLOUDY    60  58  93 SW10      29.76F
BEATRICE       CLOUDY    61  55  79 S10       29.75F
FALLS CITY     CLOUDY    62  57  83 S14       29.77F

...NORTHERN KANSAS...

CITY           SKY/WX    TMP DP  RH WIND       PRES   REMARKS
GOODLAND       SUNNY     60  21  22 NW29G39   29.94S
HILL CITY      SUNNY     64  38  38 N30G38    29.85S
NORTON         CLEAR     61  30  31 N25G31    29.84S
SMITH CENTER   SUNNY     64  36  34 NW23      29.80S
HAYS           SUNNY     66  33  29 NW21G26   29.82F
RUSSELL        SUNNY     67  31  26 NW18G26   29.80S
CONCORDIA      CLOUDY    60  49  66 SW12      29.78S
SALINA         CLOUDY    63  50  62 SW10      29.80F
TOPEKA         CLOUDY    63  56  78 S12G21    29.81F



USA.gov is the U.S. government's official web portal to all federal, state and local government web resources and services.